パンスターズ彗星

P/2019 GG21 ( PanSTARRS )

English version
Home page
Updated on July 9, 2019

---------------------------------------------------------------------

・ プロフィール

発見日 2019年4月4日
発見光度 21.0等
発見者 Pan-STARRS 1 telescope (Haleakala)

・ 写真集

・ 軌道要素

Epoch 2019 Apr. 27.0 TT = JDT 2458600.5
T 2019 May  9.68273 TT                                  MPCW
q   3.9347553            (2000.0)            P               Q
n   0.04835461     Peri.  208.27290     -0.98712206     +0.15605021
a   7.4618093      Node   340.60928     -0.11938221     -0.86505443
e   0.4726808      Incl.    6.08436     -0.10647968     -0.47679049
P  20.38
From 55 observations 2019 Mar. 29-Apr. 25, mean residual 0".5.

・ 光度変化

        m1 = 12.0 + 5 logΔ + 10.0 log r

---------------------------------------------------------------------

軌道要素はM.P.E.C. 2019-J142に掲載されたものです。
光度グラフはComet for Windowsで作成したものです。

---------------------------------------------------------------------

Copyright(C) Seiichi Yoshida (comet@aerith.net). All rights reserved.